User: anonymous   Login
Location: Unspecified
(0.0000°N, 0.0000°E)
Time: 22:55:49
(UTC+00:00)
Language:

SBSS (USA 216) - Orbit

View from above orbital plane
View from above orbital plane
View from above satellite
View from above satellite

Ground track
Ground track

The orbit data is extracted from the following two-line orbital elements,

1 37168U 10048A   18256.83695369 0.00000060  00000-0  76687-5 0    07
2 37168  97.8314 117.9308 0001000  45.3289 314.6710 14.81478586    04
Epoch (UTC): 13 September 2018 20:05:12
Eccentricity: 0.0001000
inclination: 97.8314°
perigee height: 624 km
apogee height: 625 km
right ascension of ascending node: 117.9308°
argument of perigee: 45.3289°
revolutions per day: 14.81478586
mean anomaly at epoch: 314.6710°
orbit number at epoch: 0

The dashed part of the orbit path shows where the satellite is in the earth's shadow,  

DLR